Location: *
(40.4000°N, 15.1200°E)
Time: 22:15:16
(UTC+00:00)

Cosmos 841 Rocket - Pass Details

Date: 09 April 2020
Orbit: 747 x 772 km, 74.0° (Epoch: 24 May)

Event Time Altitude Azimuth Distance (km) Brightness Sun altitude
Rises 20:23:21 0° 344° (NNW) 3,254 7.6 -29.5°
Reaches altitude 10° 20:25:47 10° 347° (NNW) 2,322 6.6 -29.9°
Enters shadow 20:29:30 44° 9° (N) 1,063 4.3 -30.4°
